FW2402 Weather Reports


time (UTC)temp
C
wind
direction
speed
KPH
gust
KPH
rain 1hr
cm
rain 24hr
cm
rain mn
cm
humidity
%
barometer
mb
20260906143523 30 270 3.2 11.3 0.00 0.00 0.00 82 1012.9
20260906143050 29 0 1.6 14.5 0.00 0.00 0.00 87 1013.0
20260906142520 28 267 6.4 14.5 0.00 0.00 0.00 84 1013.0
20260906142025 28 292 1.6 14.5 0.00 0.00 0.00 85 1013.0
20260906141549 28 281 6.4 14.5 0.00 0.00 0.00 83 1013.0
20260906141025 29 268 8.0 11.3 0.00 0.00 0.00 86 1012.9
20260906140525 28 0 0.0 9.7 0.00 0.00 0.00 87 1012.9
20260906140055 28 301 3.2 9.7 0.00 0.00 0.00 86 1013.1
20260906135523 28 269 3.2 9.7 0.00 0.03 0.00 86 1013.0
20260906135023 28 278 4.8 9.7 0.00 0.03 0.00 87 1013.1
20260906134543 28 243 1.6 6.4 0.00 0.03 0.00 88 1013.1
20260906134023 28 0 1.6 9.7 0.00 0.03 0.00 89 1013.0
20260906133526 27 0 0.0 9.7 0.00 0.03 0.00 90 1013.0
20260906133106 27 269 3.2 9.7 0.00 0.03 0.00 88 1012.9
20260906132518 27 267 3.2 6.4 0.00 0.03 0.00 90 1012.9
20260906132018 27 269 3.2 6.4 0.00 0.03 0.00 90 1013.1
20260906131541 27 264 3.2 6.4 0.00 0.03 0.00 91 1013.1
20260906131024 26 282 1.6 9.7 0.00 0.03 0.00 92 1013.3
20260906130524 26 252 3.2 9.7 0.00 0.03 0.00 93 1013.4
20260906130104 26 270 3.2 4.8 0.00 0.03 0.00 94 1013.3
20260906125523 26 270 1.6 4.8 0.00 0.03 0.00 95 1013.1
20260906125023 26 266 0.0 6.4 0.00 0.03 0.00 96 1013.2
20260906124544 25 0 0.0 6.4 0.00 0.03 0.00 96 1013.1
20260906124023 25 240 0.0 6.4 0.00 0.03 0.00 97 1013.2
20260906123521 25 0 0.0 0.0 0.00 0.03 0.00 97 1013.1
20260906123041 25 0 0.0 0.0 0.00 0.03 0.00 97 1013.0
20260906122524 25 0 0.0 0.0 0.00 0.03 0.00 97 1013.0
20260906122021 24 0 0.0 0.0 0.00 0.03 0.00 97 1012.9
20260906121547 24 0 0.0 0.0 0.00 0.03 0.00 97 1012.9
20260906121024 24 0 0.0 0.0 0.00 0.03 0.00 97 1012.7
20260906120524 23 0 0.0 0.0 0.00 0.03 0.00 97 1012.6
20260906120043 23 0 0.0 0.0 0.00 0.03 0.00 97 1012.6
20260906115524 23 0 0.0 0.0 0.00 0.03 0.00 97 1012.6
20260906115023 23 0 0.0 0.0 0.00 0.03 0.00 97 1012.5
20260906114551 23 0 0.0 0.0 0.00 0.03 0.00 97 1012.5
20260906114020 22 0 0.0 0.0 0.00 0.03 0.00 97 1012.4
20260906113524 22 0 0.0 0.0 0.00 0.03 0.00 97 1012.5
20260906113042 22 0 0.0 0.0 0.00 0.03 0.00 97 1012.4
20260906112524 23 0 0.0 0.0 0.00 0.03 0.00 97 1012.3
20260906112026 22 0 0.0 0.0 0.00 0.03 0.00 97 1012.3
20260906111600 22 0 0.0 0.0 0.00 0.03 0.00 97 1012.3
20260906111020 22 0 0.0 0.0 0.00 0.03 0.00 97 1012.1
20260906110523 22 0 0.0 0.0 0.00 0.03 0.00 97 1012.1
20260906110042 22 0 0.0 0.0 0.00 0.03 0.00 97 1012.0
20260906105524 22 0 0.0 0.0 0.00 0.03 0.00 97 1011.9
20260906105022 23 0 0.0 0.0 0.00 0.03 0.00 96 1011.9
20260906104543 22 0 0.0 0.0 0.00 0.03 0.00 97 1011.7
20260906104020 22 0 0.0 0.0 0.00 0.03 0.00 96 1011.7
20260906103525 22 0 0.0 0.0 0.00 0.03 0.00 96 1011.6
20260906103040 22 0 0.0 0.0 0.00 0.03 0.00 96 1011.6
20260906102528 23 0 0.0 0.0 0.00 0.03 0.00 96 1011.6
20260906102024 23 0 0.0 0.0 0.00 0.03 0.00 96 1011.6
20260906101546 22 0 0.0 0.0 0.00 0.03 0.00 96 1011.5
20260906101024 23 0 0.0 0.0 0.00 0.03 0.00 96 1011.4
20260906100526 23 0 0.0 0.0 0.00 0.03 0.00 96 1011.4
20260906100055 23 0 0.0 0.0 0.00 0.03 0.00 96 1011.3
20260906095525 23 0 0.0 0.0 0.00 0.03 0.00 96 1011.4
20260906095018 23 0 0.0 0.0 0.00 0.03 0.00 96 1011.3
20260906094545 23 0 0.0 0.0 0.00 0.03 0.00 96 1011.3
20260906094024 23 0 0.0 0.0 0.00 0.03 0.00 96 1011.2
20260906093525 23 0 0.0 0.0 0.00 0.03 0.00 96 1011.2
20260906093042 23 0 0.0 0.0 0.00 0.03 0.00 96 1011.1
20260906092524 23 0 0.0 0.0 0.00 0.03 0.00 96 1011.0
20260906092024 23 0 0.0 0.0 0.00 0.03 0.00 96 1010.9
20260906091545 23 0 0.0 0.0 0.00 0.03 0.00 96 1011.0
20260906091024 23 0 0.0 0.0 0.00 0.03 0.00 96 1010.9
20260906090524 23 0 0.0 0.0 0.00 0.03 0.00 96 1010.9
20260906090045 23 0 0.0 0.0 0.00 0.03 0.00 96 1010.8
20260906085523 23 0 0.0 0.0 0.00 0.03 0.00 96 1010.7
20260906085020 23 0 0.0 0.0 0.00 0.03 0.00 96 1010.8
20260906084542 23 0 0.0 0.0 0.00 0.03 0.00 96 1010.8
20260906084027 23 0 0.0 0.0 0.00 0.03 0.00 96 1010.7
20260906083524 23 0 0.0 0.0 0.00 0.03 0.00 96 1010.7
20260906083050 23 0 0.0 0.0 0.00 0.03 0.00 96 1010.7
20260906082521 23 0 0.0 0.0 0.00 0.03 0.00 96 1010.7
20260906082023 23 0 0.0 0.0 0.00 0.03 0.00 96 1010.8
20260906081543 23 0 0.0 0.0 0.00 0.03 0.00 96 1010.8
20260906081023 23 0 0.0 0.0 0.00 0.03 0.00 95 1010.8
20260906080523 23 0 0.0 0.0 0.00 0.03 0.00 95 1010.8
20260906080046 23 0 0.0 0.0 0.00 0.03 0.00 95 1010.8
20260906075518 23 0 0.0 0.0 0.00 0.03 0.00 95 1010.9
20260906075020 23 0 0.0 0.0 0.00 0.03 0.00 95 1010.9
20260906074541 23 0 0.0 0.0 0.00 0.03 0.00 95 1010.8
20260906074017 23 0 0.0 0.0 0.00 0.03 0.00 95 1010.8
20260906073525 23 0 0.0 0.0 0.00 0.03 0.00 95 1010.9
20260906073042 23 0 0.0 0.0 0.00 0.03 0.00 95 1010.7
20260906072525 24 0 0.0 0.0 0.00 0.03 0.00 95 1010.8
20260906072024 24 0 0.0 0.0 0.00 0.03 0.00 95 1010.9
20260906071547 24 0 0.0 0.0 0.00 0.03 0.00 95 1010.9
20260906071020 24 0 0.0 0.0 0.00 0.03 0.00 95 1010.9
20260906070523 24 0 0.0 0.0 0.00 0.03 0.00 95 1010.9
20260906070041 24 0 0.0 0.0 0.00 0.03 0.00 95 1010.9
20260906065524 24 0 0.0 0.0 0.00 0.03 0.00 95 1011.0
20260906065021 24 0 0.0 0.0 0.00 0.03 0.00 95 1011.0
20260906064539 24 0 0.0 0.0 0.00 0.03 0.00 95 1011.1
20260906064028 24 0 0.0 0.0 0.00 0.03 0.00 95 1011.3
20260906063523 24 0 0.0 0.0 0.00 0.03 0.00 95 1011.3
20260906063041 24 0 0.0 0.0 0.00 0.03 0.00 95 1011.3
20260906062519 24 0 0.0 0.0 0.00 0.03 0.00 95 1011.4
20260906062021 24 0 0.0 0.0 0.00 0.03 0.00 95 1011.6
20260906061542 24 0 0.0 0.0 0.00 0.03 0.00 95 1011.6
20260906061024 24 0 0.0 0.0 0.00 0.03 0.00 95 1011.6
20260906060524 24 0 0.0 0.0 0.00 0.03 0.00 95 1011.8
20260906060048 24 0 0.0 0.0 0.00 0.03 0.00 95 1011.9
20260906055521 24 0 0.0 0.0 0.00 0.03 0.00 95 1011.9
20260906055024 24 0 0.0 0.0 0.00 0.03 0.00 95 1012.1
20260906054558 24 0 0.0 0.0 0.00 0.03 0.00 95 1012.1
20260906054021 24 0 0.0 0.0 0.00 0.03 0.00 95 1012.2
20260906053524 24 0 0.0 0.0 0.00 0.03 0.00 94 1012.2
20260906053042 25 0 0.0 0.0 0.00 0.03 0.00 94 1012.3
20260906052524 25 0 0.0 0.0 0.00 0.03 0.00 94 1012.4
20260906052024 25 0 0.0 0.0 0.00 0.03 0.00 94 1012.3
20260906051602 25 0 0.0 3.2 0.00 0.03 0.00 94 1012.3
20260906051024 25 0 0.0 3.2 0.00 0.03 0.00 94 1012.4
20260906050525 25 0 0.0 6.4 0.00 0.03 0.00 94 1012.5
20260906050046 25 196 0.0 6.4 0.00 0.03 0.00 94 1012.6
20260906045522 25 159 1.6 6.4 0.00 0.03 0.00 94 1012.6
20260906045019 25 0 0.0 0.0 0.00 0.03 0.00 94 1012.7
20260906044550 25 0 0.0 1.6 0.00 0.03 0.00 94 1012.7
20260906044021 25 0 0.0 1.6 0.00 0.03 0.00 94 1012.8
20260906043519 25 0 0.0 1.6 0.00 0.03 0.00 94 1012.9
20260906043044 25 0 0.0 3.2 0.00 0.03 0.00 94 1012.8
20260906042518 25 0 0.0 4.8 0.00 0.03 0.00 94 1012.8
20260906042021 25 124 0.0 4.8 0.00 0.03 0.00 94 1012.7
20260906041540 25 260 1.6 4.8 0.00 0.03 0.00 94 1012.7
20260906041027 25 260 0.0 3.2 0.00 0.03 0.00 94 1012.7
20260906040524 25 260 0.0 3.2 0.00 0.03 0.00 94 1012.7
20260906040122 25 260 0.0 4.8 0.00 0.03 0.00 94 1012.6
20260906035522 25 260 1.6 4.8 0.00 0.03 0.03 94 1012.8
20260906035022 25 0 0.0 0.0 0.00 0.03 0.03 94 1012.7
20260906034545 25 0 0.0 1.6 0.00 0.03 0.03 94 1012.8
20260906034025 25 0 0.0 3.2 0.00 0.03 0.03 94 1012.8
20260906033524 25 0 1.6 3.2 0.00 0.03 0.03 94 1012.7
20260906033103 25 0 0.0 3.2 0.00 0.03 0.03 94 1012.7
20260906032523 25 0 0.0 0.0 0.00 0.03 0.03 94 1012.8
20260906032024 25 0 0.0 0.0 0.00 0.03 0.03 94 1012.8
20260906031542 25 0 0.0 0.0 0.00 0.03 0.03 94 1012.8
20260906031021 25 0 0.0 0.0 0.00 0.03 0.03 94 1012.8
20260906030522 25 0 0.0 0.0 0.00 0.03 0.03 93 1012.7
20260906030041 25 0 0.0 0.0 0.00 0.03 0.03 93 1012.6
20260906025524 25 0 0.0 3.2 0.00 0.03 0.03 93 1012.6
20260906025024 25 0 0.0 4.8 0.00 0.03 0.03 93 1012.7
20260906024600 25 0 0.0 4.8 0.00 0.03 0.03 93 1012.5
20260906024027 25 260 0.0 4.8 0.00 0.03 0.03 93 1012.5
20260906023526 25 0 0.0 0.0 0.00 0.03 0.03 93 1012.6
20260906023042 25 0 0.0 0.0 0.00 0.03 0.03 93 1012.6
20260906022523 25 0 0.0 0.0 0.00 0.03 0.03 93 1012.6
20260906022021 25 0 0.0 0.0 0.00 0.03 0.03 93 1012.6
20260906021542 25 0 0.0 0.0 0.00 0.03 0.03 92 1012.5
20260906021018 25 0 0.0 0.0 0.00 0.03 0.03 93 1012.5
20260906020525 25 0 0.0 0.0 0.00 0.03 0.03 93 1012.4
20260906020042 25 0 0.0 0.0 0.00 0.03 0.03 92 1012.4
20260906015521 25 0 0.0 0.0 0.00 0.03 0.03 91 1012.5
20260906015024 26 0 0.0 0.0 0.00 0.03 0.03 91 1012.6
20260906014548 26 0 0.0 0.0 0.00 0.03 0.03 91 1012.6
20260906014025 26 0 0.0 0.0 0.00 0.03 0.03 91 1012.4
20260906013522 26 0 0.0 0.0 0.00 0.03 0.03 90 1012.3
20260906013042 26 0 0.0 0.0 0.00 0.03 0.03 89 1012.2
20260906012522 26 0 0.0 0.0 0.00 0.03 0.03 89 1012.2
20260906012021 26 0 0.0 0.0 0.00 0.03 0.03 89 1012.1
20260906011540 26 0 0.0 0.0 0.00 0.03 0.03 90 1011.8
20260906011023 26 0 0.0 1.6 0.00 0.03 0.03 90 1011.7
20260906010525 26 0 0.0 1.6 0.00 0.03 0.03 90 1011.8
20260906010052 26 0 0.0 1.6 0.00 0.03 0.03 89 1011.8
20260906005525 27 0 0.0 1.6 0.00 0.03 0.03 87 1011.8
20260906005025 27 0 0.0 1.6 0.00 0.03 0.03 86 1011.8
20260906004543 27 0 0.0 4.8 0.00 0.03 0.03 85 1011.9
20260906004026 27 0 0.0 4.8 0.00 0.03 0.03 85 1011.8
20260906003520 27 260 1.6 6.4 0.00 0.03 0.03 85 1011.8
20260906003053 27 260 3.2 6.4 0.00 0.03 0.03 85 1011.8
20260906002518 27 260 3.2 6.4 0.00 0.03 0.03 84 1011.7
20260906002025 28 267 1.6 4.8 0.00 0.03 0.03 83 1011.7
20260906001549 28 0 0.0 9.7 0.00 0.03 0.03 83 1011.6
20260906001025 28 267 3.2 9.7 0.00 0.03 0.03 83 1011.7
20260906000525 28 0 3.2 11.3 0.00 0.03 0.03 82 1011.7
20260906000051 28 268 1.6 11.3 0.00 0.03 0.03 82 1011.5
20260905235524 28 261 6.4 11.3 0.00 0.03 0.03 82 1011.6
20260905235024 28 295 4.8 11.3 0.00 0.03 0.03 81 1011.5
20260905234547 28 286 6.4 11.3 0.00 0.03 0.03 80 1011.6
20260905234023 29 276 4.8 12.9 0.00 0.03 0.03 79 1011.7
20260905233518 29 254 8.0 12.9 0.00 0.03 0.03 78 1011.7
20260905233051 30 272 8.0 14.5 0.00 0.03 0.03 78 1011.6
20260905232524 30 271 6.4 14.5 0.00 0.03 0.03 78 1011.6
20260905232024 30 281 4.8 12.9 0.00 0.03 0.03 78 1011.4
20260905231548 30 250 6.4 14.5 0.00 0.03 0.03 78 1011.4
20260905231024 30 257 6.4 14.5 0.00 0.03 0.03 76 1011.4
20260905230524 30 258 9.7 14.5 0.00 0.03 0.03 75 1011.3
20260905230042 30 281 8.0 14.5 0.00 0.03 0.03 75 1011.5
20260905225523 30 257 9.7 16.1 0.00 0.03 0.03 75 1011.5
20260905225023 31 270 9.7 17.7 0.00 0.03 0.03 74 1011.4
20260905224611 31 275 8.0 20.9 0.00 0.03 0.03 73 1011.5
20260905224025 31 306 11.3 20.9 0.00 0.03 0.03 73 1011.3
20260905223525 31 244 11.3 16.1 0.00 0.03 0.03 73 1011.5
20260905223045 31 281 8.0 16.1 0.00 0.03 0.03 72 1011.5
20260905222524 31 279 9.7 17.7 0.00 0.03 0.03 72 1011.4
20260905222023 31 279 6.4 17.7 0.00 0.03 0.03 70 1011.3
20260905221543 31 271 12.9 19.3 0.00 0.03 0.03 70 1011.3
20260905221023 31 259 11.3 19.3 0.00 0.03 0.03 70 1011.3
20260905220522 31 274 11.3 17.7 0.00 0.03 0.03 70 1011.5
20260905220051 31 263 9.7 17.7 0.00 0.03 0.03 71 1011.5
20260905215526 31 268 4.8 14.5 0.00 0.25 0.03 71 1011.5
20260905215025 31 277 8.0 22.5 0.00 0.25 0.03 71 1011.6
20260905214551 31 269 11.3 22.5 0.00 0.25 0.03 69 1011.6
20260905214024 32 292 12.9 22.5 0.00 0.25 0.03 68 1011.7
20260905213525 32 272 12.9 19.3 0.00 0.25 0.03 70 1011.6
20260905213045 32 294 11.3 19.3 0.00 0.25 0.03 69 1011.5
20260905212530 32 259 12.9 19.3 0.00 0.25 0.03 68 1011.6
20260905212022 32 273 12.9 19.3 0.00 0.25 0.03 70 1011.6
20260905211547 32 276 9.7 17.7 0.00 0.25 0.03 69 1011.6
20260905211018 32 234 6.4 22.5 0.00 0.25 0.03 71 1011.6
20260905210518 32 268 11.3 22.5 0.00 0.25 0.03 70 1011.6
20260905210049 32 281 14.5 20.9 0.00 0.25 0.03 69 1011.5
20260905205524 32 282 9.7 20.9 0.00 1.40 0.03 67 1011.5
20260905205024 32 261 12.9 20.9 0.00 1.40 0.03 68 1011.6
20260905204544 32 267 9.7 17.7 0.00 1.40 0.03 67 1011.6
20260905204024 32 265 11.3 17.7 0.00 1.40 0.03 70 1011.6
20260905203521 32 263 6.4 17.7 0.00 1.40 0.03 69 1011.6
20260905203043 32 267 9.7 20.9 0.00 1.40 0.03 67 1011.5
20260905202522 32 294 9.7 20.9 0.00 1.40 0.03 68 1011.5
20260905202020 32 242 14.5 22.5 0.00 1.40 0.03 67 1011.5
20260905201544 32 269 14.5 22.5 0.00 1.40 0.03 67 1011.6
20260905201018 32 288 12.9 19.3 0.00 1.40 0.03 67 1011.7
20260905200527 32 257 11.3 20.9 0.00 1.40 0.03 66 1011.8
20260905200043 32 261 11.3 20.9 0.00 1.40 0.03 67 1011.7
20260905195523 32 282 11.3 17.7 0.00 1.47 0.03 68 1011.7
20260905195028 32 277 12.9 24.1 0.00 1.47 0.03 68 1011.7
20260905194549 32 218 17.7 24.1 0.00 1.47 0.03 67 1011.7
20260905194021 32 275 16.1 24.1 0.00 1.47 0.03 67 1011.7
20260905193522 32 274 14.5 22.5 0.00 1.47 0.03 69 1011.7
20260905193043 32 285 12.9 24.1 0.00 1.47 0.03 70 1011.7
20260905192519 32 268 14.5 24.1 0.00 1.47 0.03 69 1011.8
20260905192023 32 266 14.5 24.1 0.00 1.47 0.03 70 1011.8
20260905191541 32 248 11.3 20.9 0.00 1.47 0.03 70 1011.9
20260905191021 32 275 11.3 25.7 0.00 1.47 0.03 69 1012.1
20260905190524 31 271 11.3 25.7 0.00 1.47 0.03 69 1012.1
20260905190048 31 268 16.1 27.4 0.00 1.47 0.03 70 1012.1
20260905185523 32 254 16.1 27.4 0.00 1.55 0.03 69 1012.0
20260905185023 32 288 12.9 24.1 0.00 1.55 0.03 69 1012.0
20260905184555 32 261 11.3 24.1 0.00 1.55 0.03 69 1012.0
20260905184021 32 269 16.1 24.1 0.00 1.55 0.03 69 1012.1
20260905183522 32 238 12.9 22.5 0.00 1.55 0.03 72 1012.0
20260905183050 32 243 12.9 20.9 0.00 1.55 0.03 70 1011.9
20260905182525 32 257 8.0 20.9 0.00 1.55 0.03 76 1012.2
20260905182026 32 257 9.7 20.9 0.00 1.55 0.03 73 1012.3
20260905181548 31 277 4.8 14.5 0.00 1.55 0.03 78 1012.4
20260905181023 31 242 1.6 8.0 0.00 1.55 0.03 80 1012.4
20260905180524 30 253 1.6 8.0 0.00 1.55 0.03 82 1012.5
20260905180047 30 242 0.0 8.0 0.00 1.55 0.03 82 1012.5
20260905175518 30 219 1.6 8.0 0.00 1.55 0.03 83 1012.7
20260905175019 29 254 0.0 6.4 0.00 1.55 0.03 83 1012.7
20260905174542 28 229 1.6 6.4 0.00 1.55 0.03 82 1012.5
20260905174018 28 0 0.0 4.8 0.00 1.55 0.03 80 1012.7
20260905173525 28 258 0.0 4.8 0.00 1.55 0.03 80 1012.8
20260905173105 28 0 0.0 3.2 0.00 1.55 0.03 83 1012.9
20260905172524 27 0 0.0 8.0 0.00 1.55 0.03 82 1013.1
20260905172024 27 0 0.0 12.9 0.00 1.55 0.03 80 1013.2
20260905171547 27 209 1.6 20.9 0.00 1.55 0.03 79 1013.3
20260905171023 28 233 3.2 20.9 0.00 1.55 0.03 78 1013.4
20260905170523 28 225 12.9 30.6 0.00 1.55 0.03 78 1013.3
20260905170045 29 247 17.7 30.6 0.00 1.55 0.03 78 1013.3
20260905165519 31 238 4.8 14.5 0.00 1.55 0.03 76 1013.3
20260905165026 31 244 3.2 9.7 0.00 1.55 0.03 77 1013.3
20260905164553 31 0 1.6 12.9 0.00 1.55 0.03 80 1013.5
20260905164025 31 0 4.8 12.9 0.00 1.55 0.03 74 1013.5
20260905163528 31 247 8.0 12.9 0.00 1.55 0.03 78 1013.7
20260905163049 30 268 4.8 12.9 0.00 1.55 0.03 77 1013.7
20260905162523 30 272 1.6 12.9 0.00 1.55 0.03 77 1013.8
20260905162023 30 276 4.8 12.9 0.00 1.55 0.03 78 1013.9
20260905161600 31 251 6.4 17.7 0.00 1.55 0.03 76 1014.0
20260905161022 31 240 9.7 17.7 0.00 1.55 0.03 77 1014.0
20260905160524 30 249 9.7 14.5 0.00 1.55 0.03 78 1014.2
20260905160048 31 266 1.6 14.5 0.00 1.55 0.03 80 1014.2
20260905155528 30 247 8.0 14.5 0.00 1.55 0.03 79 1014.2
20260905155024 30 284 3.2 11.3 0.00 1.55 0.03 81 1014.3
20260905154546 30 248 1.6 16.1 0.00 1.55 0.03 79 1014.1
20260905154032 30 238 6.4 20.9 0.00 1.55 0.03 80 1014.3
20260905153525 30 265 4.8 20.9 0.00 1.55 0.03 77 1014.3
20260905153047 30 251 8.0 20.9 0.00 1.55 0.03 80 1014.1
20260905152523 30 236 6.4 17.7 0.00 1.55 0.03 80 1014.2
20260905152023 30 246 3.2 14.5 0.00 1.55 0.03 80 1014.1
20260905151544 30 0 4.8 14.5 0.00 1.55 0.03 85 1014.4
20260905151020 30 264 8.0 14.5 0.00 1.55 0.03 82 1014.5
20260905150523 30 248 3.2 11.3 0.00 1.55 0.03 83 1014.4
20260905150040 30 292 1.6 12.9 0.00 1.55 0.03 84 1014.4
20260905145525 30 250 6.4 17.7 0.00 1.55 0.03 84 1014.4
20260905145024 29 234 11.3 17.7 0.00 1.55 0.03 83 1014.4
20260905144541 29 267 8.0 16.1 0.00 1.55 0.03 84 1014.3
20260905144025 29 284 9.7 16.1 0.00 1.55 0.03 84 1014.3